Washington State Current Weather Observations

 
 ASUS46 KSEW 250220
 RWRWA 
 
 WASHINGTON REGIONAL WEATHER ROUNDUP
 NATIONAL WEATHER SERVICE SEATTLE WA
 600 PM PST MON FEB 24 2020
 
 NOTE:"FAIR" INDICATES FEW OR NO CLOUDS BELOW 12,000 FEET WITH NO 
 SIGNIFICANT WEATHER AND/OR OBSTRUCTIONS TO VISIBILITY.
 
 WAZ507-509-555>559-250300-
 SEATTLE, TACOMA, EVERETT, AND VICINITY
   
 CITY           SKY/WX    TMP DP  RH WIND       PRES   REMARKS
 EVERETT        CLOUDY    43  32  65 N3        30.60S                  
 BOEING FIELD   MOCLDY    46  31  55 NE5       30.61R                  
 RENTON         MOCLDY    45  31  58 VRB3      30.60S                  
 SEATAC AIRPORT MOCLDY    46  32  58 NE10      30.59S                  
 JBLM-MCCHORD   CLOUDY    41  33  73 S3        30.59S                  
 PUYALLUP       CLOUDY    43  34  70 CALM      30.59S                  
 BREMERTON      MOCLDY    41  32  70 E6        30.59S                  
 JBLM-FT LEWIS  MOCLDY    44  40  83 CALM      30.59R                  
 TACOMA NARROWS MOCLDY    43  32  65 CALM      30.60R                  
 
WAZ001-503-506-510-514-515-250300- NORTH INTERIOR CITY SKY/WX TMP DP RH WIND PRES REMARKS BELLINGHAM MOCLDY 40 28 62 CALM 30.60S FRIDAY HARBOR MOCLDY 42 29 59 NE3 30.60S EASTSOUND CLOUDY 43 28 56 CALM 30.60S PORT ANGELES MOCLDY 42 32 67 W3 30.60S EDIZ HOOK FAIR 44 33 64 W8 30.60S PORT TOWNSEND CLOUDY 43 36 75 CALM 30.60S NAS WHIDBEY MOCLDY 46 32 58 E6 30.64S ARLINGTON CLOUDY 42 37 82 S3 30.61F BURLINGTON CLOUDY 43 36 75 NE5 30.61S
WAZ020-022-039-040-504-511-512-250300- SOUTHWEST INTERIOR CITY SKY/WX TMP DP RH WIND PRES REMARKS SHELTON PTCLDY 44 33 65 NW5 30.57R OLYMPIA CLOUDY 45 32 60 W3 30.59 CHEHALIS CLOUDY 45 41 87 CALM 30.60S KELSO CLOUDY 47 38 71 CALM 30.62R VANCOUVER CLOUDY 47 36 65 VRB5 30.62R SCAPPOOSE, OR CLOUDY 46 39 76 CALM 30.62R PORTLAND, OR CLOUDY 48 36 63 NW3 30.62S
WAZ021-516-517-250300- WASHINGTON COAST CITY SKY/WX TMP DP RH WIND PRES REMARKS FORKS CLOUDY 43 33 68 CALM 30.59S HOQUIAM CLOUDY 45 37 73 CALM 30.60F ASTORIA, OR PTCLDY 45 38 76 CALM 30.60F
WAZ019-023-024-040-567>569-250300- CASCADE MOUNTAINS AND COLUMBIA GORGE CITY SKY/WX TMP DP RH WIND PRES REMARKS STAMPEDE PASS CLOUDY 28 24 85 VRB6 30.44R TROUTDALE, OR CLOUDY 48 34 58 NE5 30.62S HOOD RIVER, OR MOCLDY 43 32 65 W5 30.58R THE DALLES, OR MOCLDY 44 33 65 NW17 30.55S
WAZ026-027-041>044-520-521-250300- EAST SLOPES CITY SKY/WX TMP DP RH WIND PRES REMARKS OMAK CLEAR 36 21 54 NW8 30.44R WENATCHEE PTCLDY 41 18 39 W15 30.46R ELLENSBURG MOCLDY 39 25 57 NW17 30.47R YAKIMA PTCLDY 44 23 43 NW14 30.48R SUNNYSIDE ARPT PTCLDY 38 25 58 NE7 30.48S YAKIMA TC MOCLDY 41 20 43 N8 30.46R
WAZ028-034-035-250300- COLUMBIA BASIN CITY SKY/WX TMP DP RH WIND PRES REMARKS EPHRATA CLEAR 41 22 46 W7 30.44R MOSES LAKE CLEAR 43 26 51 W7 30.46R PASCO CLEAR 46 28 49 SW9 30.50R RICHLAND ARPT CLEAR 44 25 46 CALM 30.51R HERMISTON, OR PTCLDY 44 29 55 SW9 30.49R
WAZ036>038-250300- NORTHEAST WASHINGTON CITY SKY/WX TMP DP RH WIND PRES REMARKS SPOKANE GEIGER PTCLDY 36 20 52 SW10 30.40R SPOKANE FELTS CLOUDY 40 27 59 CALM 30.42R FAIRCHILD AFB PTCLDY 32 23 67 SW9 30.40R COEURDALENE,ID MOCLDY 35 28 75 SE5 30.41R DEER PARK MOCLDY 35 26 69 CALM 30.40R
WAZ029>033-250300- SOUTHEAST WASHINGTON CITY SKY/WX TMP DP RH WIND PRES REMARKS PULLMAN PTCLDY 35 21 56 CALM 30.45R LEWISTON, ID PTCLDY 42 23 46 CALM 30.48R WALLA WALLA CLEAR 42 24 49 S5 30.48R PENDLETON, OR PTCLDY 37 26 64 W10 30.48R

Data from: http://www.wrh.noaa.gov/sew/get.php?pil=RWR&sid=WA&version=0&format=printer

Current Observations

Current Weather Conditions by Major Highway
Washington State Current Weather Observations   …  Oregon State Current Weather Observation



48 Hour Forecast


Seattle  …  Vancouver  …  Portland
————————————————————————————————————————
Bend  …  Spokane  …  Richland  …  Pendleton  …  Blue Mountains I-84  …  Yakima
————————————————————————————————————————
Goldendale, Washington Higher Elevations  …  Dallesport Airport - Goldendale  …  Bingen - White Salmon - Hood River  …  Index





Top of Page